Meteo pe oră la Aachen

Astăzi, 13 Iunie, Duminică

Timp Temperatura Precipitaţii Vânt Presiune Umiditate
00:00 +10°C° 0 mm 1 m/s 754 mmHg 89%
01:00 +10°C° 0 mm 1 m/s 754 mmHg 90%
02:00 +9°C° 0 mm 1 m/s 754 mmHg 91%
03:00 +8°C° 0 mm 0 m/s 754 mmHg 92%
04:00 +10°C° 0 mm 1 m/s 754 mmHg 89%
05:00 +11°C° 0 mm 1 m/s 754 mmHg 85%
06:00 +13°C° 0 mm 1 m/s 755 mmHg 82%
07:00 +14°C° 0 mm 1 m/s 755 mmHg 74%
08:00 +16°C° 0 mm 1 m/s 755 mmHg 66%
09:00 +17°C° 0 mm 2 m/s 755 mmHg 58%
10:00 +18°C° 0 mm 2 m/s 755 mmHg 55%
11:00 +19°C° 0 mm 2 m/s 755 mmHg 52%
12:00 +20°C° 0 mm 2 m/s 755 mmHg 49%
13:00 +21°C° 0 mm 2 m/s 754 mmHg 48%
14:00 +21°C° 0 mm 2 m/s 754 mmHg 48%
15:00 +23°C° 0 mm 2 m/s 754 mmHg 47%
16:00 +21°C° 0 mm 2 m/s 754 mmHg 53%
17:00 +20°C° 0 mm 2 m/s 753 mmHg 60%
18:00 +21°C° 0 mm 1 m/s 753 mmHg 66%
19:00 +19°C° 0 mm 1 m/s 753 mmHg 69%
20:00 +16°C° 0 mm 1 m/s 753 mmHg 71%
21:00 +14°C° 0 mm 1 m/s 753 mmHg 74%
22:00 +14°C° 0 mm 1 m/s 753 mmHg 73%
23:00 +13°C° 0 mm 1 m/s 753 mmHg 73%

Mâine, 14 Iunie, Luni

Timp Temperatura Precipitaţii Vânt Presiune Umiditate
00:00 +13°C° 0 mm 1 m/s 752 mmHg 73%
01:00 +13°C° 0 mm 1 m/s 752 mmHg 74%
02:00 +12°C° 0 mm 1 m/s 752 mmHg 74%
03:00 +12°C° 0 mm 1 m/s 751 mmHg 75%
04:00 +14°C° 0 mm 1 m/s 751 mmHg 72%
05:00 +15°C° 0 mm 1 m/s 751 mmHg 69%
06:00 +18°C° 0 mm 1 m/s 751 mmHg 66%
07:00 +20°C° 0 mm 1 m/s 751 mmHg 61%
08:00 +22°C° 0 mm 1 m/s 751 mmHg 56%
09:00 +24°C° 0 mm 1 m/s 751 mmHg 50%
10:00 +25°C° 0 mm 1 m/s 751 mmHg 49%
11:00 +26°C° 0 mm 1 m/s 750 mmHg 47%
12:00 +27°C° 0 mm 1 m/s 750 mmHg 45%
13:00 +27°C° 0 mm 1 m/s 750 mmHg 45%
14:00 +27°C° 0 mm 2 m/s 749 mmHg 46%
15:00 +27°C° 0 mm 2 m/s 749 mmHg 46%
16:00 +26°C° 0 mm 2 m/s 749 mmHg 53%
17:00 +26°C° 0 mm 1 m/s 749 mmHg 59%
18:00 +25°C° 0 mm 1 m/s 749 mmHg 66%
19:00 +23°C° 0 mm 1 m/s 749 mmHg 69%
20:00 +21°C° 0 mm 1 m/s 749 mmHg 73%
21:00 +19°C° 0 mm 1 m/s 749 mmHg 77%
22:00 +18°C° 0 mm 1 m/s 749 mmHg 80%
23:00 +16°C° 0 mm 1 m/s 749 mmHg 83%

Poimâine, 15 Iunie, Marţi

Timp Temperatura Precipitaţii Vânt Presiune Umiditate
00:00 +15°C° 0 mm 1 m/s 749 mmHg 86%
01:00 +15°C° 0 mm 1 m/s 749 mmHg 88%
02:00 +15°C° 0 mm 1 m/s 749 mmHg 89%
03:00 +14°C° 0 mm 1 m/s 749 mmHg 91%
04:00 +16°C° 0 mm 1 m/s 749 mmHg 89%
05:00 +18°C° 0 mm 1 m/s 749 mmHg 87%
06:00 +19°C° 0 mm 1 m/s 749 mmHg 85%
07:00 +19°C° 0 mm 2 m/s 750 mmHg 79%
08:00 +21°C° 0 mm 2 m/s 750 mmHg 74%
09:00 +23°C° 0 mm 2 m/s 750 mmHg 69%
10:00 +24°C° 0 mm 2 m/s 750 mmHg 67%
11:00 +24°C° 0 mm 3 m/s 749 mmHg 65%
12:00 +25°C° 0 mm 3 m/s 749 mmHg 63%
13:00 +25°C° 0 mm 3 m/s 749 mmHg 63%
14:00 +25°C° 0 mm 3 m/s 749 mmHg 64%
15:00 +25°C° 0 mm 3 m/s 749 mmHg 64%
16:00 +24°C° 0 mm 3 m/s 749 mmHg 68%
17:00 +22°C° 0 mm 3 m/s 748 mmHg 72%
18:00 +21°C° 0 mm 3 m/s 748 mmHg 76%
19:00 +20°C° 0 mm 2 m/s 748 mmHg 80%
20:00 +18°C° 0 mm 2 m/s 748 mmHg 83%
21:00 +18°C° 0 mm 1 m/s 748 mmHg 87%
22:00 +18°C° 0 mm 1 m/s 748 mmHg 87%
23:00 +18°C° 0 mm 1 m/s 748 mmHg 87%

16 Iunie, Miercuri

Timp Temperatura Precipitaţii Vânt Presiune Umiditate
00:00 +18°C° 0 mm 1 m/s 747 mmHg 87%
01:00 +18°C° 0 mm 1 m/s 747 mmHg 87%
02:00 +18°C° 0 mm 1 m/s 747 mmHg 87%
03:00 +18°C° 0 mm 1 m/s 747 mmHg 88%
04:00 +19°C° 0 mm 1 m/s 746 mmHg 85%
05:00 +18°C° 0 mm 0 m/s 746 mmHg 82%
06:00 +19°C° 0 mm 0 m/s 746 mmHg 79%
07:00 +21°C° 0 mm 0 m/s 746 mmHg 74%
08:00 +24°C° 0 mm 1 m/s 746 mmHg 69%
09:00 +26°C° 0 mm 1 m/s 746 mmHg 63%
10:00 +27°C° 0 mm 1 m/s 746 mmHg 60%
11:00 +28°C° 0 mm 1 m/s 745 mmHg 56%
12:00 +29°C° 0 mm 1 m/s 745 mmHg 52%
13:00 +29°C° 0 mm 1 m/s 745 mmHg 51%
14:00 +30°C° 0 mm 1 m/s 745 mmHg 50%
15:00 +30°C° 0 mm 1 m/s 745 mmHg 49%
16:00 +29°C° 0 mm 1 m/s 744 mmHg 55%
17:00 +28°C° 0 mm 1 m/s 744 mmHg 61%
18:00 +26°C° 0 mm 0 m/s 744 mmHg 67%
19:00 +26°C° 0 mm 1 m/s 744 mmHg 70%
20:00 +24°C° 0 mm 1 m/s 744 mmHg 73%
21:00 +22°C° 0 mm 1 m/s 744 mmHg 76%
22:00 +22°C° 0 mm 1 m/s 744 mmHg 77%
23:00 +20°C° 0 mm 2 m/s 744 mmHg 78%

17 Iunie, Joi

Timp Temperatura Precipitaţii Vânt Presiune Umiditate
00:00 +20°C° 0 mm 2 m/s 743 mmHg 79%
01:00 +20°C° 0 mm 2 m/s 743 mmHg 78%
02:00 +19°C° 0 mm 2 m/s 743 mmHg 77%
03:00 +19°C° 0 mm 2 m/s 743 mmHg 76%
04:00 +20°C° 0 mm 3 m/s 743 mmHg 75%
05:00 +21°C° 0 mm 3 m/s 743 mmHg 73%
06:00 +22°C° 0 mm 3 m/s 743 mmHg 72%
07:00 +25°C° 0 mm 3 m/s 742 mmHg 66%
08:00 +27°C° 0 mm 4 m/s 742 mmHg 61%
09:00 +29°C° 0 mm 4 m/s 742 mmHg 55%
10:00 +30°C° 0 mm 5 m/s 742 mmHg 54%
11:00 +32°C° 0 mm 5 m/s 742 mmHg 53%
12:00 +32°C° 0 mm 5 m/s 742 mmHg 52%
13:00 +32°C° 0.1 mm 4 m/s 742 mmHg 55%
14:00 +30°C° 0.1 mm 4 m/s 742 mmHg 58%
15:00 +30°C° 0.1 mm 4 m/s 742 mmHg 61%
16:00 +30°C° 0 mm 3 m/s 742 mmHg 65%
17:00 +29°C° 0 mm 2 m/s 742 mmHg 68%
18:00 +28°C° 0 mm 2 m/s 742 mmHg 72%
19:00 +26°C° 0.4 mm 1 m/s 742 mmHg 78%
20:00 +24°C° 0.4 mm 1 m/s 743 mmHg 83%
21:00 +22°C° 0.4 mm 1 m/s 743 mmHg 88%
22:00 +22°C° 0.5 mm 1 m/s 743 mmHg 90%
23:00 +21°C° 0.5 mm 1 m/s 743 mmHg 91%

18 Iunie, Vineri

Timp Temperatura Precipitaţii Vânt Presiune Umiditate
00:00 +21°C° 0.5 mm 1 m/s 743 mmHg 93%
01:00 +21°C° 0.4 mm 1 m/s 742 mmHg 93%
02:00 +20°C° 0.4 mm 1 m/s 742 mmHg 93%
03:00 +20°C° 0.4 mm 1 m/s 742 mmHg 93%
04:00 +21°C° 0 mm 1 m/s 742 mmHg 91%
05:00 +22°C° 0 mm 1 m/s 742 mmHg 89%
06:00 +23°C° 0 mm 1 m/s 742 mmHg 86%
07:00 +25°C° 0 mm 2 m/s 742 mmHg 78%
08:00 +26°C° 0 mm 2 m/s 743 mmHg 70%
09:00 +28°C° 0 mm 2 m/s 743 mmHg 62%
10:00 +28°C° 0.1 mm 2 m/s 743 mmHg 59%
11:00 +29°C° 0.1 mm 2 m/s 742 mmHg 55%
12:00 +30°C° 0.1 mm 2 m/s 742 mmHg 52%
13:00 +29°C° 0.1 mm 3 m/s 742 mmHg 55%
14:00 +29°C° 0.1 mm 4 m/s 742 mmHg 58%
15:00 +28°C° 0.1 mm 5 m/s 742 mmHg 62%
16:00 +27°C° 0.1 mm 4 m/s 742 mmHg 68%
17:00 +25°C° 0.1 mm 4 m/s 742 mmHg 74%
18:00 +22°C° 0.1 mm 3 m/s 742 mmHg 79%
19:00 +21°C° 0 mm 3 m/s 743 mmHg 82%
20:00 +20°C° 0 mm 2 m/s 743 mmHg 85%
21:00 +19°C° 0 mm 2 m/s 744 mmHg 88%
22:00 +19°C° 0 mm 2 m/s 744 mmHg 89%
23:00 +18°C° 0 mm 2 m/s 744 mmHg 90%
Arată mai mult

Formular de consimțământ

Meteoprog și furnizorii noștri de servicii pot stoca și accesa date personale, precum cookies, identificatori de dispozitiv sau alte tehnologii similare pe dispozitivul dumneavoastră și procesa astfel de date pentru a personaliza conținutul și reclamele, dar și pentru a oferi caracteristici de social media și pentru a analiza traficul.

  • Stocarea și/sau accesarea informațiilor pe dispozitivul dumneavoastră

    Cookies, identificatori de dispozitiv sau alte informații pot fi stocate sau accesate pe dispozitiv în scopurile indicate mai sus.

  • Reclame și conținut personalizat, evaluarea reclamelor și a conținutului, informații despre audiențe și dezvoltarea produselor

    Reclamele și conținutul pot fi personalizate pe baza unui profil. Pot fi adăugate date suplimentare pentru a personaliza mai bine reclamele și conținutul. Performanța reclamelor și conținutului poate fi măsurată. Pot fi obținute informații despre utilizatorii care au văzut reclamele și conținutul. Aceste date pot fi utilizate pentru a dezvolta sau îmbunătăți experiența utilizatorilor, sistemele și software-ul.

Dând clic pe ‘Sunt de acord’, permiteți utilizarea cookie-urilor menționate, a identificatorilor de dispozitiv, balizelor web sau altor tehnologii similare. Setările pot fi modificate din browser-ul dispozitivului dumneavoastră.

În anumite scopuri, interesele legitime pot prima asupra consimțământului. Puteți citi mai multe informații în acest sens în Politica privind Confidențialitatea Datelor și Cookie.